Arad, Romania

8:36 PM EET on March 25, 2017 (GMT +0200)
Arad

Weather History for LRAR - March, 2013

Change the Weather History Date:

Saturday, March 23, 2013

  Actual Average Record
Temperature  
Mean Temperature 32 °F -  
Max Temperature 38 °F 59 °F 73 °F (2017)
Min Temperature 25 °F 38 °F 15 °F (2003)
Degree Days  
Heating Degree Days 34    
Moisture  
Dew Point 27 °F    
Average Humidity 78    
Maximum Humidity 100    
Minimum Humidity 51    
Precipitation  
Precipitation 0.00 in - - ()
Sea Level Pressure  
Sea Level Pressure 30.04 in    
Wind  
Wind Speed 7 mph ()    
Max Wind Speed 14 mph    
Max Gust Speed -    
Visibility 7.2 miles    
Events      
Averages and records for this station are not official NWS values.
T = Trace of Precipitation, MM = Missing Value Source: Averaged Metar Reports

Daily Weather History Graph

Daily Weather History Graph

Search for Another Location

Airport or City:

Trip Planner

Search our weather history database for the weather conditions in past years. The results will help you decide how hot, cold, wet, or windy it might be!

Date:

Astronomy

Mar. 23, 2013 Rise Set
Actual Time 6:32 AM EET 6:51 PM EET
Civil Twilight 6:02 AM EET 7:21 PM EET
Nautical Twilight 5:27 AM EET 7:57 PM EET
Astronomical Twilight 4:50 AM EET 8:33 PM EET
Moon 2:48 PM EET (3/23) 4:10 AM EET (3/23)
Length of Visible Light 13h 19m
Length of Day
12h 19m
Waxing Gibbous, 83% of the Moon is Illuminated
Mar 23
Waxing Gibbous
Mar 27
Full
Apr 3
Last Quarter
Apr 10
New
Apr 18
First Quarter

Hourly Weather History & Observations

Time (EET) Temp. Windchill Dew Point Humidity Pressure Visibility Wind Dir Wind Speed Gust Speed Precip Events Conditions
12:00 AM 32 °F - 27 °F 75% 29.94 in 12 mi NNW 4.5 mph - -  
12:00 AM 32.0 °F 23.6 °F 30.2 °F 93% 29.92 in - North 10.4 mph - N/A   Clear
1:00 AM 31 °F - 26 °F 76% 29.94 in 12 mi NNW 6.7 mph - -  
1:00 AM 30.2 °F 19.8 °F 28.4 °F 93% 29.95 in - North 13.8 mph - N/A   Clear
2:00 AM 30 °F - 25 °F 74% 29.97 in 12 mi NNW 6.7 mph - -  
2:00 AM 30.2 °F 21.3 °F 28.4 °F 93% 29.95 in - North 10.4 mph - N/A   Clear
3:00 AM 29 °F - 24 °F 75% 29.97 in 12 mi NNW 6.7 mph - -  
3:00 AM 28.4 °F 19.1 °F 28.4 °F 100% 29.95 in - North 10.4 mph - N/A   Clear
4:00 AM 28 °F - 24 °F 79% 29.99 in 12 mi North 6.7 mph - -  
4:00 AM 26.6 °F 18.2 °F 26.6 °F 100% 29.98 in - NNW 8.1 mph - N/A   Clear
4:30 AM 26.6 °F 18.2 °F 26.6 °F 100% 29.98 in - NNW 8.1 mph - N/A   Clear
5:00 AM 28 °F - 24 °F 77% 30.00 in 12 mi NNW 4.5 mph - -  
5:30 AM 26.6 °F 17.5 °F 26.6 °F 100% 29.98 in - NNW 9.2 mph - N/A   Clear
6:00 AM 27 °F - 23 °F 79% 30.01 in 12 mi NNW 4.5 mph - -  
6:00 AM 26.6 °F 17.5 °F 26.6 °F 100% 30.01 in - North 9.2 mph - N/A   Clear
6:30 AM 26.6 °F 18.2 °F 24.8 °F 93% 30.01 in - North 8.1 mph - N/A   Clear
7:00 AM 26 °F - 22 °F 81% 30.03 in 6 mi NNW 4.5 mph - -  
7:00 AM 24.8 °F 16.9 °F 24.8 °F 100% 30.04 in - NNW 6.9 mph - N/A   Clear
7:30 AM 26.6 °F 20.0 °F 24.8 °F 93% 30.04 in - NW 5.8 mph - N/A   Clear
8:00 AM 27 °F - 22 °F 75% 30.06 in 6 mi NNW 4.5 mph - -  
8:00 AM 26.6 °F 17.5 °F 24.8 °F 93% 30.04 in - NNW 9.2 mph - N/A   Clear
8:30 AM 28.4 °F 18.5 °F 24.8 °F 86% 30.04 in - North 11.5 mph - N/A   Clear
9:00 AM 28 °F - 22 °F 69% 30.06 in 6 mi NNW 4.5 mph - -  
9:00 AM 28.4 °F 18.5 °F 24.8 °F 86% 30.04 in - NNE 11.5 mph - N/A   Clear
9:30 AM 30.2 °F 20.8 °F 24.8 °F 80% 30.04 in - NNE 11.5 mph - N/A   Clear
10:00 AM 29 °F - 23 °F 71% 30.07 in 6 mi North 6.7 mph - -  
10:00 AM 30.2 °F 21.9 °F 26.6 °F 86% 30.06 in - NNE 9.2 mph - N/A   Clear
10:30 AM 32.0 °F 24.2 °F 24.8 °F 75% 30.06 in 6.2 mi NNE 9.2 mph - N/A   Scattered Clouds
11:00 AM 31 °F - 24 °F 65% 30.08 in 6 mi North 6.7 mph - -  
11:00 AM 32.0 °F 24.2 °F 28.4 °F 87% 30.06 in 6.2 mi NNE 9.2 mph - N/A   Scattered Clouds
11:30 AM 32.0 °F 23.0 °F 24.8 °F 75% 30.06 in 6.2 mi NNE 11.5 mph - N/A   Partly Cloudy
12:00 PM 33 °F - 23 °F 57% 30.08 in 6 mi North 6.7 mph - -   Scattered Clouds
12:00 PM 33.8 °F 25.3 °F 26.6 °F 75% 30.06 in - NNE 11.5 mph - N/A   Clear
12:30 PM 33.8 °F 26.4 °F 28.4 °F 81% 30.06 in - North 9.2 mph - N/A   Clear
1:00 PM 35 °F - 27 °F 63% 30.08 in 6 mi North 6.7 mph - -   Scattered Clouds
1:00 PM 35.6 °F 28.6 °F 28.4 °F 75% 30.06 in - NNE 9.2 mph - N/A   Clear
1:30 PM 35.6 °F 28.6 °F 28.4 °F 75% 30.06 in - North 9.2 mph - N/A   Clear
2:00 PM 36 °F - 27 °F 59% 30.07 in 6 mi North 6.7 mph - -  
2:00 PM 37.4 °F 30.8 °F 30.2 °F 75% 30.04 in 6.2 mi NE 9.2 mph - N/A   Partly Cloudy
2:30 PM 37.4 °F 30.8 °F 30.2 °F 75% 30.04 in 6.2 mi NNE 9.2 mph - N/A   Scattered Clouds
3:00 PM 37 °F - 27 °F 55% 30.06 in 6 mi North 6.7 mph - -   Scattered Clouds
3:00 PM 37.4 °F 30.8 °F 30.2 °F 75% 30.04 in 6.2 mi North 9.2 mph - N/A   Scattered Clouds
3:30 PM 39.2 °F 33.0 °F 30.2 °F 70% 30.04 in 6.2 mi North 9.2 mph - N/A   Mostly Cloudy
4:00 PM 38 °F - 26 °F 51% 30.06 in 6 mi North 6.7 mph - -   Partly Cloudy
4:00 PM 37.4 °F 30.8 °F 30.2 °F 75% 30.04 in 6.2 mi NNW 9.2 mph - N/A   Mostly Cloudy
4:30 PM 37.4 °F 30.8 °F 30.2 °F 75% 30.04 in 6.2 mi NNE 9.2 mph - N/A   Mostly Cloudy
5:00 PM 37 °F - 26 °F 54% 30.06 in 6 mi North 6.7 mph - -   Partly Cloudy
5:00 PM 37.4 °F 30.8 °F 30.2 °F 75% 30.04 in 6.2 mi North 9.2 mph - N/A   Mostly Cloudy
5:30 PM 37.4 °F 28.9 °F 30.2 °F 75% 30.04 in 6.2 mi North 13.8 mph - N/A   Mostly Cloudy
6:00 PM 36 °F - 27 °F 58% 30.06 in 6 mi North 6.7 mph - -   Partly Cloudy
6:00 PM 37.4 °F 30.8 °F 30.2 °F 75% 30.04 in 6.2 mi North 9.2 mph - N/A   Mostly Cloudy
6:30 PM 35.6 °F 27.5 °F 30.2 °F 81% 30.04 in 6.2 mi NNE 11.5 mph - N/A   Mostly Cloudy
7:00 PM 35 °F - 27 °F 63% 30.06 in 6 mi North 6.7 mph - -   Partly Cloudy
7:00 PM 33.8 °F 25.3 °F 28.4 °F 81% 30.06 in 6.2 mi NNE 11.5 mph - N/A   Mostly Cloudy
7:30 PM 33.8 °F 26.4 °F 30.2 °F 87% 30.04 in 6.2 mi NNE 9.2 mph - N/A   Partly Cloudy
8:00 PM 33 °F - 27 °F 72% 30.08 in 6 mi North 4.5 mph - -   Mostly Cloudy
8:00 PM 33.8 °F 27.7 °F 28.4 °F 81% 30.06 in - North 6.9 mph - N/A   Clear
8:30 PM 33.8 °F 27.7 °F 28.4 °F 81% 30.06 in - North 6.9 mph - N/A   Clear
9:00 PM 33 °F - 25 °F 61% 30.08 in 6 mi North 4.5 mph - -   Mostly Cloudy
9:00 PM 32.0 °F 24.8 °F 26.6 °F 80% 30.06 in - North 8.1 mph - N/A   Clear
10:00 PM 32 °F - 25 °F 67% 30.10 in 6 mi North 4.5 mph - -   Mostly Cloudy
10:00 PM 32.0 °F 25.6 °F 24.8 °F 75% 30.06 in - North 6.9 mph - N/A   Clear
11:00 PM 31 °F - 24 °F 65% 30.10 in 6 mi North 6.7 mph - -   Mostly Cloudy
11:00 PM 30.2 °F 21.3 °F 23.0 °F 75% 30.06 in - NNE 10.4 mph - N/A   Clear